Regional Weather Roundup
Issued by NWS

Home | Current Version | Previous Version | Graphics & Text | Print | Product List | Glossary On
Versions: 1 2 3 4 5 6 7 8 9 10 11 12 13 14 15 16 17 18 19 20 21 22 23 24 25 26 27 28 29 30 31 32 33 34 35 36 37 38 39 40 41 42 43 44 45 46 47 48 49 50
000
ASUS43 KTOP 220959
RWRKS

WEATHER ROUNDUP FOR KANSAS
NATIONAL WEATHER SERVICE GOODLAND KS
500 AM CDT MON SEP 22 2014

NOTE:  "FAIR" INDICATES FEW OR NO CLOUDS BELOW 12,000 FEET WITH NO
SIGNIFICANT WEATHER AND/OR OBSTRUCTIONS TO VISIBILITY.

KSZ001>006-013>018-027>032-041>047-221100-
NORTHWEST KANSAS

CITY           SKY/WX    TMP DP  RH WIND       PRES   REMARKS
GOODLAND       PTCLDY    50  43  77 S8        30.32R
HAYS           CLOUDY    54  45  71 CALM      30.31R
HILL CITY      CLOUDY    56  44  64 E5        30.30S
RUSSELL        PTCLDY    50  45  83 SE5       30.30R
$$

KSZ061>065-074>080-084>089-221100-
SOUTHWEST KANSAS

CITY           SKY/WX    TMP DP  RH WIND       PRES   REMARKS
DODGE CITY     CLEAR     56  40  55 SE3       30.31R
ELKHART          N/A     58  46  64 SE8         N/A
GARDEN CITY    PTCLDY    53  44  71 E7        30.30S
GREAT BEND     PTCLDY    55  45  67 E5        30.31S
LIBERAL        MOCLDY    57  41  54 S3        30.32S
$$

KSZ066>073-081>083-090>101-221100-
SOUTHEAST KANSAS

CITY           SKY/WX    TMP DP  RH WIND       PRES   REMARKS
CHANUTE        CLEAR     51  49  92 N3        30.27R
HUTCHINSON     CLEAR     50  45  83 CALM      30.30R
NEWTON         CLEAR     54  43  66 E5        30.31R
PARSONS        CLEAR     50  49  96 CALM      30.27R
WICHITA INTL   PTCLDY    59  46  62 E5        30.28R
WICHITA JABRA  CLEAR     51  46  83 NE5       30.28R
WINFIELD       CLEAR     55  48  77 NE6       30.28R
$$

KSZ007>012-019>026-033>040-048>060-102>105-221100-
NORTHEAST KANSAS

CITY           SKY/WX    TMP DP  RH WIND       PRES   REMARKS
CONCORDIA      CLEAR     48  46  93 CALM      30.30R
EMPORIA        CLEAR     51  48  89 CALM      30.28R
LAWRENCE       CLEAR     46  44  93 N5        30.29R
MANHATTAN      CLEAR     45  43  93 NE3       30.30R
OLATHE IND     CLEAR     50  47  89 CALM      30.28R
OLATHE EXE     CLEAR     52  48  86 N5        30.27R
SALINA         CLEAR     52  45  77 CALM      30.30R
TOPEKA BILLARD CLEAR     50  49  96 CALM      30.29S
TOPEKA FORBES  CLEAR     48  45  89 CALM      30.29R
$$



USA.gov is the U.S. government's official web portal to all federal, state and local government web resources and services.